Flag for U.S.A. Weather past 2 weeks in Tampa, Florida, U.S.A.

Now
77 °F

Mostly cloudy.


Feels Like: 79 °F
Forecast: 60 / 75 °F
Wind: 5 mph from Southeast

Location: Tampa International Airport

Current Time: Dec 21, 2014 at 1:58:37 PM

Latest Report: Dec 21, 2014 at 12:53 PM


Visibility: 10 mi

Pressure: 30.04 "Hg

Humidity: 60%

Dew point: 62 °F

Location of TampaLocation

Historic Weather in Tampa — Graph

°F

Tampa temperature yesterday

Maximum temperature yesterday: 75 °F (at 12:53 PM)
Minimum temperature yesterday: 55 °F (at 4:53 AM)
Average temperature yesterday: 66 °F

Past Weeks' High & Low Weather Summary

 TemperatureHumidityPressure
High78 °F (Dec 6, 1:53 PM)97% (Dec 6, 11:53 PM)30.31 "Hg (Dec 6, 11:53 PM)
Low45 °F (Dec 13, 5:53 AM)24% (Dec 13, 2:53 PM)30.03 "Hg (Dec 20, 1:53 PM)
Average59 °F72%30.13 "Hg
* Reported Dec 6 12:53 PM — Dec 21 12:53 PM, Tampa, Weather by CustomWeather, © 2014

Note: Actual official high and low records may vary slightly from our data, if they occured in-between our weather recording intervals... More about our weather records

Advertising

Tampa weather history for previous 24 hours

 ConditionsComfort  
Time TempWeatherWind HumidityBarometerVisibility
12:53 PM
Dec 21
77 °FMostly cloudy.5 mph60%30.04 "Hg10 mi
11:53 AM76 °FOvercast.7 mph62%30.07 "Hg10 mi
10:53 AM75 °FPartly sunny.13 mph64%30.07 "Hg10 mi
9:53 AM71 °FPartly sunny.6 mph73%30.09 "Hg10 mi
8:53 AM68 °FPartly sunny.3 mph78%30.10 "Hg10 mi
7:53 AM66 °FScattered clouds.6 mph78%30.08 "Hg10 mi
6:53 AM65 °FPassing clouds.3 mph78%30.06 "Hg10 mi
5:53 AM64 °FPassing clouds.3 mph78%30.06 "Hg9 mi
4:53 AM65 °FPartly cloudy.No wind76%30.06 "Hg9 mi
3:53 AM65 °FPartly cloudy.No wind76%30.06 "Hg10 mi
2:53 AM66 °FOvercast.5 mph73%30.06 "Hg10 mi
1:53 AM66 °FMostly cloudy.3 mph75%30.06 "Hg10 mi
12:53 AM67 °FPassing clouds.No wind71%30.07 "Hg10 mi
11:53 PM
Dec 20
67 °FPartly cloudy.No wind71%30.08 "Hg10 mi
10:53 PM67 °FPassing clouds.No wind71%30.08 "Hg10 mi
9:53 PM67 °FPassing clouds.No wind71%30.09 "Hg10 mi
8:53 PM67 °FPassing clouds.3 mph71%30.09 "Hg10 mi
7:53 PM68 °FPassing clouds.No wind73%30.08 "Hg10 mi
6:53 PM70 °FPartly cloudy.No wind66%30.07 "Hg10 mi
5:53 PM71 °FPartly cloudy.No wind63%30.05 "Hg10 mi
4:53 PM73 °FPartly sunny.3 mph57%30.04 "Hg10 mi
3:53 PM73 °FPartly sunny.5 mph53%30.04 "Hg10 mi
2:53 PM74 °FOvercast.5 mph52%30.03 "Hg10 mi
1:53 PM74 °FPartly sunny.6 mph52%30.03 "Hg10 mi
Weather by CustomWeather, © 2014

See weather overviewHow to use our weather pages